When you browse on this site, cookies collect data to enhance your experience and personalize the content and advertising you see.
Visit our Privacy Policy to learn more. By continuing to use the site, you agree to this use of cookies and data.

Hourly Weather Guapiacu

Today, 7 August, Friday

Time Temperature Precipitation Wind Pressure Humidity
00:00 +17°C° 0 mm 3 mps 722 mmHg 47%
01:00 +17°C° 0 mm 3 mps 722 mmHg 48%
02:00 +16°C° 0 mm 3 mps 721 mmHg 50%
03:00 +16°C° 0 mm 3 mps 721 mmHg 51%
04:00 +14°C° 0 mm 3 mps 721 mmHg 53%
05:00 +14°C° 0 mm 3 mps 721 mmHg 55%
06:00 +13°C° 0 mm 3 mps 721 mmHg 57%
07:00 +16°C° 0 mm 3 mps 722 mmHg 54%
08:00 +19°C° 0 mm 4 mps 723 mmHg 51%
09:00 +21°C° 0 mm 4 mps 723 mmHg 48%
10:00 +23°C° 0 mm 4 mps 724 mmHg 42%
11:00 +26°C° 0 mm 4 mps 724 mmHg 36%
12:00 +28°C° 0 mm 4 mps 724 mmHg 30%
13:00 +29°C° 0 mm 3 mps 723 mmHg 27%
14:00 +29°C° 0 mm 3 mps 722 mmHg 24%
15:00 +30°C° 0 mm 2 mps 721 mmHg 21%
16:00 +28°C° 0 mm 2 mps 721 mmHg 24%
17:00 +26°C° 0 mm 1 mps 721 mmHg 27%
18:00 +24°C° 0 mm 1 mps 720 mmHg 30%
19:00 +23°C° 0 mm 1 mps 721 mmHg 32%
20:00 +22°C° 0 mm 1 mps 721 mmHg 34%
21:00 +20°C° 0 mm 2 mps 721 mmHg 36%
22:00 +19°C° 0 mm 2 mps 721 mmHg 38%
23:00 +19°C° 0 mm 3 mps 721 mmHg 40%

Tomorrow, 8 August, Saturday

Time Temperature Precipitation Wind Pressure Humidity
00:00 +18°C° 0 mm 3 mps 721 mmHg 41%
01:00 +18°C° 0 mm 3 mps 721 mmHg 45%
02:00 +17°C° 0 mm 2 mps 721 mmHg 49%
03:00 +16°C° 0 mm 2 mps 720 mmHg 53%
04:00 +16°C° 0 mm 2 mps 721 mmHg 56%
05:00 +16°C° 0 mm 2 mps 721 mmHg 58%
06:00 +16°C° 0 mm 3 mps 721 mmHg 61%
07:00 +18°C° 0 mm 3 mps 722 mmHg 56%
08:00 +20°C° 0 mm 4 mps 722 mmHg 52%
09:00 +22°C° 0 mm 5 mps 723 mmHg 47%
10:00 +25°C° 0 mm 4 mps 723 mmHg 42%
11:00 +27°C° 0 mm 4 mps 723 mmHg 38%
12:00 +29°C° 0 mm 4 mps 723 mmHg 33%
13:00 +30°C° 0 mm 3 mps 722 mmHg 31%
14:00 +30°C° 0 mm 3 mps 721 mmHg 28%
15:00 +30°C° 0 mm 2 mps 721 mmHg 26%
16:00 +29°C° 0 mm 2 mps 720 mmHg 30%
17:00 +27°C° 0 mm 2 mps 720 mmHg 33%
18:00 +25°C° 0 mm 2 mps 720 mmHg 37%
19:00 +24°C° 0 mm 2 mps 720 mmHg 39%
20:00 +23°C° 0 mm 2 mps 720 mmHg 41%
21:00 +21°C° 0 mm 2 mps 720 mmHg 43%
22:00 +20°C° 0 mm 2 mps 720 mmHg 43%
23:00 +20°C° 0 mm 3 mps 720 mmHg 44%

Day after tomorrow, 9 August, Sunday

Time Temperature Precipitation Wind Pressure Humidity
00:00 +19°C° 0 mm 3 mps 721 mmHg 45%
01:00 +18°C° 0 mm 3 mps 720 mmHg 45%
02:00 +18°C° 0 mm 3 mps 720 mmHg 45%
03:00 +17°C° 0 mm 3 mps 719 mmHg 45%
04:00 +17°C° 0 mm 3 mps 719 mmHg 47%
05:00 +16°C° 0 mm 3 mps 719 mmHg 48%
06:00 +16°C° 0 mm 3 mps 719 mmHg 49%
07:00 +18°C° 0 mm 3 mps 720 mmHg 46%
08:00 +20°C° 0 mm 4 mps 721 mmHg 42%
09:00 +22°C° 0 mm 4 mps 722 mmHg 39%
10:00 +25°C° 0 mm 4 mps 721 mmHg 35%
11:00 +28°C° 0 mm 4 mps 721 mmHg 31%
12:00 +30°C° 0 mm 4 mps 721 mmHg 27%
13:00 +30°C° 0 mm 3 mps 720 mmHg 26%
14:00 +31°C° 0 mm 3 mps 720 mmHg 24%
15:00 +31°C° 0 mm 2 mps 719 mmHg 23%
16:00 +29°C° 0 mm 2 mps 718 mmHg 26%
17:00 +27°C° 0 mm 1 mps 718 mmHg 29%
18:00 +25°C° 0 mm 1 mps 717 mmHg 33%
19:00 +24°C° 0 mm 2 mps 718 mmHg 35%
20:00 +23°C° 0 mm 2 mps 718 mmHg 37%
21:00 +21°C° 0 mm 3 mps 718 mmHg 40%
22:00 +20°C° 0 mm 3 mps 718 mmHg 41%
23:00 +20°C° 0 mm 3 mps 718 mmHg 42%

10 August, Monday

Time Temperature Precipitation Wind Pressure Humidity
00:00 +20°C° 0 mm 3 mps 718 mmHg 43%
01:00 +19°C° 0 mm 3 mps 718 mmHg 48%
02:00 +18°C° 0 mm 3 mps 717 mmHg 52%
03:00 +17°C° 0 mm 3 mps 717 mmHg 57%
04:00 +17°C° 0 mm 3 mps 717 mmHg 58%
05:00 +17°C° 0 mm 3 mps 717 mmHg 60%
06:00 +17°C° 0 mm 3 mps 717 mmHg 61%
07:00 +19°C° 0 mm 4 mps 718 mmHg 55%
08:00 +21°C° 0 mm 4 mps 718 mmHg 48%
09:00 +25°C° 0 mm 5 mps 719 mmHg 41%
10:00 +27°C° 0 mm 5 mps 719 mmHg 37%
11:00 +29°C° 0 mm 5 mps 719 mmHg 32%
12:00 +33°C° 0 mm 5 mps 719 mmHg 27%
13:00 +33°C° 0 mm 4 mps 718 mmHg 25%
14:00 +34°C° 0 mm 3 mps 717 mmHg 23%
15:00 +34°C° 0 mm 2 mps 717 mmHg 21%
16:00 +31°C° 0 mm 2 mps 716 mmHg 24%
17:00 +29°C° 0 mm 1 mps 716 mmHg 27%
18:00 +27°C° 0 mm 1 mps 715 mmHg 30%
19:00 +26°C° 0 mm 1 mps 716 mmHg 32%
20:00 +24°C° 0 mm 1 mps 716 mmHg 35%
21:00 +23°C° 0 mm 1 mps 716 mmHg 37%
22:00 +23°C° 0 mm 2 mps 716 mmHg 38%
23:00 +21°C° 0 mm 2 mps 716 mmHg 39%

11 August, Tuesday

Time Temperature Precipitation Wind Pressure Humidity
00:00 +21°C° 0 mm 2 mps 716 mmHg 40%
01:00 +20°C° 0 mm 2 mps 716 mmHg 43%
02:00 +20°C° 0 mm 3 mps 715 mmHg 45%
03:00 +19°C° 0 mm 3 mps 715 mmHg 47%
04:00 +19°C° 0 mm 3 mps 715 mmHg 49%
05:00 +19°C° 0 mm 3 mps 715 mmHg 50%
06:00 +18°C° 0 mm 3 mps 715 mmHg 52%
07:00 +20°C° 0 mm 3 mps 716 mmHg 47%
08:00 +23°C° 0 mm 4 mps 717 mmHg 42%
09:00 +26°C° 0 mm 4 mps 718 mmHg 37%
10:00 +29°C° 0 mm 4 mps 718 mmHg 32%
11:00 +32°C° 0 mm 4 mps 718 mmHg 28%
12:00 +34°C° 0 mm 4 mps 718 mmHg 24%
13:00 +35°C° 0 mm 3 mps 717 mmHg 22%
14:00 +36°C° 0 mm 2 mps 716 mmHg 20%
15:00 +35°C° 0 mm 1 mps 716 mmHg 18%
16:00 +33°C° 0 mm 1 mps 715 mmHg 21%
17:00 +31°C° 0 mm 1 mps 715 mmHg 24%
18:00 +29°C° 0 mm 2 mps 714 mmHg 26%
19:00 +27°C° 0 mm 2 mps 715 mmHg 29%
20:00 +26°C° 0 mm 2 mps 715 mmHg 31%
21:00 +25°C° 0 mm 2 mps 715 mmHg 33%
22:00 +24°C° 0 mm 3 mps 715 mmHg 34%
23:00 +24°C° 0 mm 3 mps 715 mmHg 35%

12 August, Wednesday

Time Temperature Precipitation Wind Pressure Humidity
00:00 +22°C° 0 mm 3 mps 715 mmHg 36%
01:00 +22°C° 0 mm 3 mps 715 mmHg 38%
02:00 +21°C° 0 mm 3 mps 714 mmHg 40%
03:00 +20°C° 0 mm 3 mps 714 mmHg 43%
04:00 +20°C° 0 mm 4 mps 714 mmHg 43%
05:00 +20°C° 0 mm 4 mps 714 mmHg 44%
06:00 +20°C° 0 mm 4 mps 714 mmHg 44%
07:00 +22°C° 0 mm 4 mps 715 mmHg 41%
08:00 +25°C° 0 mm 5 mps 715 mmHg 37%
09:00 +27°C° 0 mm 5 mps 716 mmHg 33%
10:00 +30°C° 0 mm 5 mps 716 mmHg 29%
11:00 +33°C° 0 mm 6 mps 716 mmHg 24%
12:00 +35°C° 0 mm 6 mps 716 mmHg 20%
13:00 +36°C° 0 mm 5 mps 715 mmHg 19%
14:00 +36°C° 0 mm 5 mps 714 mmHg 18%
15:00 +37°C° 0 mm 4 mps 713 mmHg 17%
16:00 +35°C° 0 mm 4 mps 713 mmHg 19%
17:00 +33°C° 0 mm 3 mps 713 mmHg 22%
18:00 +30°C° 0 mm 3 mps 713 mmHg 24%
19:00 +29°C° 0 mm 3 mps 713 mmHg 26%
20:00 +27°C° 0 mm 3 mps 713 mmHg 28%
21:00 +26°C° 0 mm 3 mps 713 mmHg 30%
22:00 +26°C° 0 mm 4 mps 713 mmHg 31%
23:00 +25°C° 0 mm 4 mps 713 mmHg 32%
Show more